| time (UTC) | temp F | wind direction | speed knots | gust knots | rain 1hr in | rain 24hr in | rain mn in | humidity % | barometer mb |
| 20260902071544 | 72 | 321 | 7.8 | 10.4 | 0.00 | 0.14 | 0.00 | 46 | 1011.2 |
| 20260902070039 | 72 | 355 | 9.6 | 13.9 | 0.00 | 0.14 | 0.00 | 49 | 1010.9 |
| 20260902064535 | 73 | 355 | 9.6 | 19.1 | 0.00 | 0.14 | 0.00 | 49 | 1010.9 |
| 20260902063036 | 73 | 316 | 15.6 | 22.6 | 0.00 | 0.14 | 0.00 | 100 | 1010.8 |
| 20260902061542 | 72 | 51 | 0.0 | 0.0 | 0.00 | 0.14 | 0.00 | 100 | 1009.9 |
| 20260902060021 | 73 | 51 | 0.0 | 0.0 | 0.00 | 0.14 | 0.00 | 100 | 1009.5 |
| 20260902054516 | 73 | 51 | 0.0 | 0.0 | 0.00 | 0.14 | 0.00 | 100 | 1009.2 |
| 20260902053013 | 73 | 51 | 0.0 | 0.0 | 0.00 | 0.14 | 0.00 | 100 | 1009.3 |
| 20260902051509 | 73 | 51 | 0.0 | 0.0 | 0.00 | 0.14 | 0.00 | 100 | 1009.5 |
| 20260902050009 | 73 | 51 | 0.0 | 0.0 | 0.00 | 0.14 | 0.00 | 100 | 1009.6 |
| 20260902044559 | 73 | 51 | 0.0 | 0.0 | 0.00 | 0.14 | 0.14 | 100 | 1009.4 |
| 20260902043055 | 74 | 56 | 0.0 | 0.0 | 0.00 | 0.14 | 0.14 | 100 | 1009.3 |
| 20260902041553 | 74 | 64 | 0.0 | 0.0 | 0.00 | 0.14 | 0.14 | 100 | 1009.3 |
| 20260902040046 | 75 | 64 | 0.0 | 0.0 | 0.00 | 0.14 | 0.14 | 100 | 1009.6 |
| 20260902034554 | 76 | 64 | 0.0 | 0.0 | 0.00 | 0.14 | 0.14 | 100 | 1009.7 |
| 20260902033053 | 76 | 66 | 0.0 | 5.2 | 0.00 | 0.14 | 0.14 | 2 | 1009.7 |
| 20260902031532 | 77 | 123 | 0.0 | 0.0 | 0.00 | 0.14 | 0.14 | 15 | 1009.8 |
| 20260902030028 | 77 | 25 | 0.0 | 0.0 | 0.00 | 0.14 | 0.14 | 16 | 1010.2 |
| 20260902024523 | 77 | 32 | 0.0 | 0.0 | 0.00 | 0.14 | 0.14 | 25 | 1010.0 |
| 20260902023019 | 77 | 32 | 0.0 | 0.0 | 0.00 | 0.14 | 0.14 | 33 | 1010.0 |
| 20260902021523 | 78 | 23 | 0.0 | 0.0 | 0.00 | 0.14 | 0.14 | 39 | 1009.7 |
| 20260902020012 | 78 | 23 | 0.0 | 0.0 | 0.00 | 0.14 | 0.14 | 38 | 1009.9 |
| 20260902014506 | 78 | 15 | 0.0 | 2.6 | 0.00 | 0.14 | 0.14 | 36 | 1009.7 |
| 20260902013002 | 78 | 15 | 0.0 | 0.0 | 0.00 | 0.14 | 0.14 | 26 | 1009.8 |
| 20260902011559 | 79 | 15 | 0.0 | 0.0 | 0.00 | 0.14 | 0.14 | 28 | 1009.7 |
| 20260902010057 | 79 | 15 | 0.0 | 0.0 | 0.00 | 0.14 | 0.14 | 35 | 1009.7 |
| 20260902004548 | 80 | 15 | 0.0 | 0.0 | 0.00 | 0.14 | 0.14 | 42 | 1009.6 |
| 20260902003043 | 81 | 15 | 0.0 | 0.0 | 0.00 | 0.14 | 0.14 | 50 | 1009.6 |
| 20260902001541 | 83 | 15 | 0.0 | 0.0 | 0.00 | 0.14 | 0.14 | 55 | 1009.6 |
| 20260902000038 | 83 | 13 | 0.0 | 0.0 | 0.00 | 0.14 | 0.14 | 59 | 1009.7 |
| 20260901234530 | 84 | 13 | 0.0 | 4.3 | 0.00 | 0.14 | 0.14 | 63 | 1009.7 |
| 20260901233031 | 85 | 50 | 0.0 | 4.3 | 0.00 | 0.14 | 0.14 | 64 | 1009.8 |
| 20260901231522 | 85 | 25 | 0.0 | 2.6 | 0.00 | 0.14 | 0.14 | 65 | 1009.8 |
| 20260901230017 | 86 | 53 | 0.0 | 0.0 | 0.00 | 0.14 | 0.14 | 66 | 1009.8 |
| 20260901224530 | 86 | 53 | 0.0 | 0.0 | 0.00 | 0.14 | 0.14 | 68 | 1009.9 |
| 20260901223008 | 87 | 53 | 0.0 | 2.6 | 0.00 | 0.14 | 0.14 | 68 | 1009.9 |
| 20260901221504 | 87 | 43 | 0.0 | 2.6 | 0.00 | 0.14 | 0.14 | 68 | 1009.9 |
| 20260901220107 | 87 | 333 | 0.0 | 0.9 | 0.00 | 0.14 | 0.14 | 68 | 1010.0 |
| 20260901214555 | 87 | 313 | 0.0 | 0.9 | 0.00 | 0.14 | 0.14 | 67 | 1010.1 |
| 20260901213050 | 87 | 328 | 0.0 | 0.0 | 0.00 | 0.14 | 0.14 | 66 | 1010.0 |
| 20260901211546 | 88 | 327 | 0.0 | 3.5 | 0.00 | 0.14 | 0.14 | 66 | 1010.0 |
| 20260901210042 | 88 | 5 | 0.0 | 0.9 | 0.00 | 0.14 | 0.14 | 67 | 1010.1 |
| 20260901204536 | 88 | 134 | 0.0 | 6.1 | 0.00 | 0.14 | 0.14 | 66 | 1010.3 |
| 20260901203038 | 88 | 360 | 1.7 | 6.1 | 0.00 | 0.14 | 0.14 | 68 | 1010.6 |
| 20260901201528 | 87 | 44 | 1.7 | 5.2 | 0.00 | 0.14 | 0.14 | 68 | 1010.7 |
| 20260901200027 | 85 | 21 | 0.0 | 3.5 | 0.00 | 0.14 | 0.14 | 66 | 1011.0 |
| 20260901194518 | 84 | 9 | 0.0 | 2.6 | 0.00 | 0.14 | 0.14 | 60 | 1011.0 |
| 20260901193014 | 82 | 5 | 0.0 | 3.5 | 0.00 | 0.14 | 0.14 | 53 | 1011.3 |
| 20260901191510 | 81 | 9 | 0.0 | 4.3 | 0.00 | 0.14 | 0.14 | 29 | 1011.4 |
| 20260901190015 | 79 | 349 | 0.0 | 3.5 | 0.01 | 0.14 | 0.14 | 100 | 1011.5 |
| 20260901184601 | 77 | 336 | 0.0 | 0.0 | 0.08 | 0.14 | 0.14 | 100 | 1011.6 |
| 20260901183057 | 75 | 336 | 0.0 | 0.0 | 0.10 | 0.14 | 0.14 | 100 | 1011.8 |
| 20260901181558 | 75 | 335 | 0.0 | 0.0 | 0.14 | 0.14 | 0.14 | 100 | 1011.2 |
| 20260901180047 | 78 | 336 | 0.0 | 0.0 | 0.13 | 0.13 | 0.13 | 15 | 1013.0 |
| 20260901174543 | 81 | 5 | 0.0 | 0.0 | 0.06 | 0.06 | 0.06 | 60 | 1012.7 |
| 20260901173039 | 85 | 5 | 0.0 | 0.0 | 0.03 | 0.03 | 0.03 | 69 | 1012.5 |
| 20260901171545 | 85 | 12 | 0.0 | 3.5 | 0.00 | 0.00 | 0.00 | 68 | 1012.4 |
| 20260901170030 | 83 | 10 | 0.9 | 3.5 | 0.00 | 0.00 | 0.00 | 62 | 1012.4 |
| 20260901164525 | 83 | 11 | 0.0 | 3.5 | 0.00 | 0.00 | 0.00 | 59 | 1012.3 |
| 20260901163020 | 82 | 13 | 0.9 | 4.3 | 0.00 | 0.00 | 0.00 | 52 | 1012.4 |
| 20260901161519 | 81 | 350 | 0.0 | 0.0 | 0.00 | 0.00 | 0.00 | 46 | 1012.5 |
| 20260901160015 | 80 | 350 | 0.0 | 0.0 | 0.00 | 0.00 | 0.00 | 33 | 1012.5 |
| 20260901154507 | 79 | 350 | 0.0 | 0.0 | 0.00 | 0.00 | 0.00 | 36 | 1012.5 |
| 20260901153003 | 79 | 355 | 0.0 | 0.0 | 0.00 | 0.00 | 0.00 | 39 | 1012.6 |
| 20260901151606 | 78 | 355 | 0.0 | 0.0 | 0.00 | 0.00 | 0.00 | 30 | 1012.5 |
| 20260901150055 | 77 | 355 | 0.0 | 0.0 | 0.00 | 0.00 | 0.00 | 3 | 1012.4 |
| 20260901144550 | 76 | 355 | 0.0 | 0.0 | 0.00 | 0.00 | 0.00 | 100 | 1012.4 |
| 20260901143052 | 75 | 276 | 0.0 | 0.0 | 0.00 | 0.00 | 0.00 | 100 | 1012.6 |
| 20260901141540 | 74 | 276 | 0.0 | 0.0 | 0.00 | 0.00 | 0.00 | 100 | 1012.8 |
| 20260901140036 | 73 | 276 | 0.0 | 0.0 | 0.00 | 0.00 | 0.00 | 100 | 1012.8 |
| 20260901134535 | 71 | 275 | 0.0 | 0.0 | 0.00 | 0.00 | 0.00 | 100 | 1012.7 |
| 20260901133026 | 69 | 275 | 0.0 | 0.0 | 0.00 | 0.00 | 0.00 | 100 | 1012.7 |
| 20260901131522 | 69 | 275 | 0.0 | 0.0 | 0.00 | 0.00 | 0.00 | 100 | 1012.6 |
| 20260901130018 | 68 | 275 | 0.0 | 0.0 | 0.00 | 0.00 | 0.00 | 100 | 1012.7 |
| 20260901124513 | 0 | 275 | 0.0 | 0.0 | 0.00 | 0.00 | 0.00 | 1012.6 | |
| 20260901123008 | 0 | 275 | 0.0 | 0.0 | 0.00 | 0.00 | 0.00 | 1012.4 | |
| 20260901121504 | 0 | 275 | 0.0 | 0.0 | 0.00 | 0.00 | 0.00 | 1012.3 | |
| 20260901114555 | 0 | 275 | 0.0 | 0.0 | 0.00 | 0.00 | 0.00 | 1012.1 | |
| 20260901113058 | 0 | 275 | 0.0 | 0.0 | 0.00 | 0.00 | 0.00 | 1012.2 | |
| 20260901111549 | 0 | 275 | 0.0 | 0.0 | 0.00 | 0.00 | 0.00 | 1012.1 | |
| 20260901110042 | 0 | 275 | 0.0 | 0.0 | 0.00 | 0.00 | 0.00 | 1012.2 | |
| 20260901104548 | 0 | 275 | 0.0 | 0.0 | 0.00 | 0.00 | 0.00 | 1012.1 | |
| 20260901103033 | 67 | 275 | 0.0 | 0.0 | 0.00 | 0.00 | 0.00 | 100 | 1012.0 |
| 20260901101532 | 67 | 275 | 0.0 | 0.0 | 0.00 | 0.00 | 0.00 | 100 | 1012.0 |
| 20260901100025 | 68 | 275 | 0.0 | 0.0 | 0.00 | 0.00 | 0.00 | 100 | 1012.1 |
| 20260901094520 | 69 | 275 | 0.0 | 0.0 | 0.00 | 0.00 | 0.00 | 100 | 1012.0 |
| 20260901093015 | 70 | 275 | 0.0 | 0.0 | 0.00 | 0.00 | 0.00 | 100 | 1012.0 |
| 20260901091511 | 70 | 275 | 0.0 | 0.0 | 0.00 | 0.00 | 0.00 | 100 | 1011.8 |
| 20260901090012 | 70 | 275 | 0.0 | 0.0 | 0.00 | 0.00 | 0.00 | 100 | 1011.8 |
| 20260901084502 | 69 | 275 | 0.0 | 0.0 | 0.00 | 0.00 | 0.00 | 100 | 1011.7 |
| 20260901083103 | 69 | 275 | 0.0 | 0.0 | 0.00 | 0.00 | 0.00 | 100 | 1011.9 |
| 20260901081602 | 70 | 275 | 0.0 | 0.0 | 0.00 | 0.00 | 0.00 | 100 | 1012.0 |
| 20260901080100 | 69 | 275 | 0.0 | 0.0 | 0.00 | 0.00 | 0.00 | 100 | 1012.1 |
| 20260901074555 | 69 | 275 | 0.0 | 0.0 | 0.00 | 0.00 | 0.00 | 100 | 1012.2 |
| 20260901073052 | 70 | 275 | 0.0 | 0.0 | 0.00 | 0.00 | 0.00 | 100 | 1012.3 |